千帆星座-111(QIANFAN-111)

导读

QIANFAN-111(NORAD编号68638)是中国自主研发的千帆星座(G60星链)组网卫星。千帆星座是中国自主可控的低轨卫星互联网星座,计划分三期部署超1.5万颗卫星,旨在为全球提供低时延、大容量卫星宽带服务。该卫星单星质量小于300千克,设计寿命7年,运行于低地球轨道(LEO),支持Ku频段宽带通信服务。QIANFAN-111于2026年4月随第七批18颗组网卫星由长征八号火箭在海南商业航天发射场成功发射入轨,将为“一带一路”沿线区域提供空天地海一体化互联网接入服务,推动星座一期区域组网建设进程。

Basic Information
目录编号:
68638
目录名称:
QIANFAN-111
国际标识:
2026-075C
轨道中心:
EARTH
卫星名称:
千帆星座-111
卫星全名:
千帆星座-111(QIANFAN-111)
卫星状态:
在轨 (已飞行157 天)
发射日期:
2026-04-07 UTC
国别 :
中国 (CN)
星等 :
--
This satellite is enrolled in the Space Conjunction Data Service (SCDS) and the current flight risk assessment level is: No High Risk
Orbit Information
数据来源 国际轨道数据 AOE轨道数据
星历时间 2026-09-11T14:33:54+0800
8小时前
查看轨道信息
2026-09-10T00:00:00+0800
1天前
查看轨道信息
半长轴 7446.644km 7446.646km
偏心率 0.0002287 0.0002184
轨道倾角 88.988° 88.988°
近地点辐角 99.176° 101.485°
升交点赤经 312.211° 312.375°
平近点角 260.965° 7.984°
近地点 1066.803km 1066.882km
远地点 1070.211km 1070.136km
周期 106.586分钟 106.586分钟
每日圈数 13.510204 13.510199
Detailed Information
卫星平台:
111
覆盖范围:
全球
运营商:
上海垣信卫星科技有限公司
运营商所在国:
中国
使用方式:
暂无
Satellite Introduction
千帆星座,也被称为“G60星链”计划,是中国版“星链”的重要组成部分,旨在打造一个由1.4万多颗低轨宽频多媒体卫星构成的庞大星座。千帆星座计划由上海垣信卫星科技有限公司负责实施,于2023年启动建设。该项目是我国第二个低轨卫星大星座,旨在通过构建庞大的卫星网络,为全球用户提供高质量的通信和宽带互联网服务。
2D Orbit Map
3D Orbit Map
Orbit Altitude Analysis Chart
Orbit Inclination Analysis Chart
Orbit Comprehensive Analysis Chart
View Comprehensive Chart
Conjunction Data List
Event ID Objects TCA Miss Dist (km) Collision Risk Probability Collision Risk Index (CRI) Action
CDM_260905-122106-863806-938322
2026-09-05T
12:21:57+0000
0.301 km
远距离
3.163581E-4 高风险 0.85
CDM_260905-103506-863806-938322
2026-09-05T
10:35:18+0000
0.301 km
远距离
3.161477E-4 高风险 0.85
CDM_260905-084806-863806-938322
2026-09-05T
08:48:39+0000
0.301 km
远距离
3.15166E-4 高风险 0.85
CDM_260905-070206-863806-938322
2026-09-05T
07:02:00+0000
0.302 km
远距离
3.13395E-4 高风险 0.85
CDM_260905-051506-863806-938322
2026-09-05T
05:15:21+0000
0.304 km
远距离
3.105677E-4 高风险 0.85
CDM_260905-032806-863806-938322
2026-09-05T
03:28:42+0000
0.306 km
远距离
3.069609E-4 高风险 0.85
CDM_260905-014206-863806-938322
2026-09-05T
01:42:03+0000
0.309 km
远距离
3.023032E-4 高风险 0.85
CDM_260904-235506-863806-938322
2026-09-04T
23:55:24+0000
0.312 km
远距离
2.968107E-4 高风险 0.84
CDM_260906-023506-863806-938322
2026-09-06T
02:35:09+0000
0.313 km
远距离
2.959481E-4 高风险 0.84
CDM_260906-042106-863806-938322
2026-09-06T
04:21:48+0000
0.313 km
远距离
2.957861E-4 高风险 0.84
Miss Distance Evolution Trend with All Objects
Collision Probability Evolution Trend with All Objects